Flag for Canada Weather past 2 weeks in Cape Dorset, Nunavut Territory, Canada

Now
12 °F

Light snow. Mostly cloudy.


Feels Like: 0 °F
Forecast: N/A
Wind: 9 mph from Southwest

Location: Cape Dorset

Current Time: Dec 21, 2014 at 4:02:32 PM

Latest Report: Dec 21, 2014 at 3:04 PM


Visibility: 9 mi

Pressure: 29.94 "Hg

Humidity: 79%

Dew point: 7 °F

Location of Cape DorsetLocation

Historic Weather in Cape Dorset — Graph

°F

Cape Dorset temperature yesterday

Maximum temperature yesterday: 10 °F (at 10:00 AM)
Minimum temperature yesterday: 0 °F (at 12:00 AM)
Average temperature yesterday: 4 °F

Past Weeks' High & Low Weather Summary

 TemperatureHumidityPressure
High23 °F (Dec 11, 10:52 AM)100% (Dec 13, 8:00 AM)30.36 "Hg (Dec 13, 8:00 AM)
Low-18 °F (Dec 8, 8:00 PM)65% (Dec 14, 4:02 PM)29.49 "Hg (Dec 11, 6:58 AM)
Average1 °F83%29.92 "Hg
* Reported Dec 6 3:00 PM — Dec 21 3:04 PM, Cape Dorset, Weather by CustomWeather, © 2014

Note: Actual official high and low records may vary slightly from our data, if they occured in-between our weather recording intervals... More about our weather records

Advertising

Cape Dorset weather history for previous 24 hours

 ConditionsComfort  
Time TempWeatherWind HumidityBarometerVisibility
3:04 PM
Dec 21
12 °FLight snow. Mostly cloudy.9 mph79%29.94 "Hg9 mi
2:48 PM10 °FLight snow. Mostly cloudy.8 mph85%29.93 "Hg5 mi
2:01 PM12 °FLight snow. Overcast.12 mph85%29.93 "Hg5 mi
1:00 PM10 °FLight snow. Overcast.8 mph92%29.93 "Hg9 mi
12:48 PM10 °FLight snow. Overcast.9 mph92%29.93 "Hg6 mi
12:00 PM10 °FLight snow. More clouds than sun.9 mph92%29.93 "Hg1 mi
11:49 AM10 °FLight snow. Mostly cloudy.10 mph92%29.93 "Hg2 mi
11:00 AM10 °FLight snow. Cloudy.9 mph85%29.93 "Hg6 mi
10:00 AM7 °FLight snow. Overcast.No wind92%29.93 "Hg3 mi
9:00 AM7 °FLight snow. Overcast.8 mph92%29.93 "Hg3 mi
8:59 AM7 °FLight snow. Overcast.9 mph92%29.93 "Hg3 mi
8:00 AM9 °FLight snow. Overcast.10 mph92%29.92 "Hg2 mi
7:00 AM9 °FLight snow. Overcast.12 mph92%29.91 "Hg2 mi
6:00 AM7 °FLight snow. Overcast.3 mph92%29.90 "Hg2 mi
5:00 AM3 °FLight snow. Passing clouds.No wind92%29.90 "Hg9 mi
4:57 AM1 °FLight snow. Passing clouds.2 mph92%29.90 "Hg9 mi
4:00 AM3 °FClear.5 mph92%29.89 "Hg9 mi
3:03 AM1 °FClear.3 mph92%29.88 "Hg9 mi
2:00 AM3 °FLight snow. Passing clouds.3 mph92%29.85 "Hg6 mi
1:00 AM3 °FLight snow. Passing clouds.2 mph92%29.84 "Hg5 mi
12:48 AM3 °FLight snow. Passing clouds.2 mph92%29.84 "Hg4 mi
12:00 AM5 °FLight snow. Overcast.3 mph85%29.83 "Hg8 mi
11:45 PM
Dec 20
5 °FLight snow. Overcast.2 mph92%29.83 "Hg6 mi
11:00 PM5 °FLight snow. Mostly cloudy.No wind85%29.82 "Hg5 mi
10:00 PM5 °FLight snow. Overcast.No wind85%29.81 "Hg5 mi
9:00 PM5 °FLight snow. Overcast.No wind85%29.80 "Hg2 mi
8:59 PM5 °FLight snow. Overcast.No wind85%29.80 "Hg2 mi
8:00 PM3 °FLight snow. Mostly cloudy.3 mph92%29.80 "Hg8 mi
7:00 PM3 °FLight snow. Overcast.2 mph92%29.80 "Hg2 mi
6:01 PM5 °FLight snow. Overcast.No wind92%29.79 "Hg2 mi
5:02 PM5 °FLight snow. Overcast.6 mph85%29.79 "Hg1 mi
4:01 PM5 °FLight snow. Overcast.2 mph85%29.78 "Hg1 mi
Weather by CustomWeather, © 2014

See weather overviewHow to use our weather pages